This is the latest recevied weather packets stored in our database for station/object KB1ZFK. If no packets are shown the sender has not sent any weather packets the latest 10 day(s).
| Time | Temp. | Humidity | Pressure | Rain* | Wind** | Luminosity | Snow |
|---|---|---|---|---|---|---|---|
| 1778065216 | 14.44° C | 86% | 1008.9 hPa | 0 mm | - | 59 W/m² | - |
| 1778064911 | 14.44° C | 86% | 1009 hPa | 0 mm | - | 55 W/m² | - |
| 1778064609 | 13.89° C | 86% | 1008.7 hPa | 0 mm | - | 47 W/m² | - |
| 1778064307 | 13.89° C | 87% | 1009 hPa | 0 mm | - | 39 W/m² | - |
| 1778064005 | 13.89° C | 87% | 1009 hPa | 0 mm | - | 36 W/m² | - |
| 1778063702 | 13.89° C | 87% | 1008.9 hPa | 0 mm | - | 37 W/m² | - |
| 1778063398 | 13.89° C | 87% | 1009.1 hPa | 0 mm | - | 29 W/m² | - |
| 1778063096 | 13.89° C | 86% | 1008.9 hPa | 0 mm | - | 16 W/m² | - |
| 1778062794 | 13.89° C | 86% | 1008.7 hPa | 0 mm | - | 13 W/m² | - |
| 1778062490 | 13.89° C | 86% | 1008.8 hPa | 0 mm | - | 15 W/m² | - |
| 1778062187 | 13.89° C | 86% | 1008.8 hPa | 0 mm | - | 14 W/m² | - |
| 1778061886 | 13.89° C | 86% | 1008.9 hPa | 0 mm | - | 10 W/m² | - |
| 1778061583 | 13.89° C | 86% | 1008.9 hPa | 0 mm | - | 7 W/m² | - |
| 1778061282 | 13.33° C | 86% | 1008.8 hPa | 0 mm | - | 5 W/m² | - |
| 1778060977 | 13.33° C | 86% | 1008.9 hPa | 0 mm | - | 4 W/m² | - |
| 1778060676 | 13.33° C | 86% | 1008.8 hPa | 0 mm | - | 2 W/m² | - |
| 1778060373 | 13.33° C | 86% | 1008.9 hPa | 0 mm | - | 0 W/m² | - |
| 1778060071 | 13.33° C | 87% | 1008.8 hPa | 0 mm | - | 0 W/m² | - |
| 1778059769 | 12.78° C | 86% | 1008.8 hPa | 0 mm | - | 0 W/m² | - |
| 1778059467 | 12.78° C | 86% | 1008.8 hPa | 0 mm | - | 0 W/m² | - |
| 1778059163 | 12.78° C | 87% | 1008.6 hPa | 0 mm | - | 0 W/m² | - |
| 1778058861 | 12.78° C | 86% | 1008.6 hPa | 0 mm | - | 0 W/m² | - |
| 1778058558 | 13.33° C | 86% | 1008.9 hPa | 0 mm | - | 0 W/m² | - |
| 1778058256 | 13.33° C | 85% | 1008.5 hPa | 0 mm | - | 0 W/m² | - |
| 1778057952 | 13.33° C | 84% | 1008.7 hPa | 0 mm | - | 0 W/m² | - |
* Rain latest hour (hover to see other rain measurements)
** Current wind speed in m/s (hover to see current wind gust speed)